Weather History for Upington, South Africa

Change the Weather History Date:

Monday, December 30, 2013

  Actual Average Record
Temperature  
Mean Temperature 82 °F -  
Max Temperature 101 °F 93 °F 107 °F (2012)
Min Temperature 64 °F 66 °F 59 °F (1996)
Cooling Degree Days 18    
Growing Degree Days 32 (Base 50)    
Moisture  
Dew Point 40 °F    
Average Humidity 23    
Maximum Humidity 51    
Minimum Humidity 5    
Precipitation  
Precipitation 0.00 in 0.03 in - ()
Sea Level Pressure  
Sea Level Pressure 29.95 in    
Wind  
Wind Speed 6 mph ()    
Max Wind Speed 20 mph    
Max Gust Speed -    
Visibility 8.7 miles    
Events      
Averages and records for this station are not official NWS values.
T = Trace of Precipitation, MM = Missing Value Source: Averaged Metar Reports

Daily Weather History Graph

Daily Weather History Graph

Search for Another Location

Airport:

Trip Planner

Search our weather history database for the weather conditions in past years. The results will help you decide how hot, cold, wet, or windy it might be!

Date:

Astronomy

Dec. 30, 2013 Rise Set
Actual Time 5:39 AM SAST 7:35 PM SAST
Civil Twilight 5:12 AM SAST 8:02 PM SAST
Nautical Twilight 4:40 AM SAST 8:34 PM SAST
Astronomical Twilight 4:05 AM SAST 9:08 PM SAST
Moon 3:32 AM SAST (12/30) 5:31 PM SAST (12/30)
Length of Visible Light 14h 49m
Length of Day
13h 55m
Waning Crescent, 6% of the Moon is Illuminated
Dec 30
Waning Crescent
Jan 1
New
Jan 8
First Quarter
Jan 16
Full
Jan 24
Last Quarter

Hourly Weather History & Observations

Time (SAST) Temp. Heat Index Dew Point Humidity Pressure Visibility Wind Dir Wind Speed Gust Speed Precip Events Conditions
12:00 AM 73.4 °F - 33.8 °F 23% 29.95 in - WSW 4.6 mph - N/A   Unknown
1:00 AM 73.4 °F - 32.0 °F 22% 29.95 in - SSW 5.8 mph - N/A   Clear
2:00 AM 74 °F - 33 °F 13%  in 25 mi WSW 2.3 mph - -  
2:00 AM 73.4 °F - 32.0 °F 22% 29.95 in - WSW 2.3 mph - N/A   Clear
3:00 AM 71.6 °F - 32.0 °F 23% 29.92 in - SW 3.5 mph - N/A   Clear
4:00 AM 66.2 °F - 32.0 °F 28% 29.95 in - West 4.6 mph - N/A   Clear
5:00 AM 66 °F - 33 °F 19%  in 25 mi NE 6.9 mph - -  
5:00 AM 66.2 °F - 32.0 °F 28% 29.95 in - NE 5.8 mph - N/A   Clear
6:00 AM 66.2 °F - 32.0 °F 28% 29.98 in - North 2.3 mph - N/A   Clear
6:22 AM 71.6 °F - 33.8 °F 25% 29.98 in - West 1.2 mph - N/A   Clear
6:37 AM 75.2 °F - 48.2 °F 38% 29.98 in - NNW 1.2 mph - N/A   Clear
7:00 AM 75.2 °F - 55.4 °F 50% 30.01 in - North 3.5 mph - N/A   Clear
7:37 AM 78.8 °F - 59.0 °F 51% 30.01 in - NNE 19.6 mph - N/A   Clear
8:00 AM 80 °F - 59 °F 38%  in 12 mi North 18.4 mph - -   Haze
8:00 AM 78.8 °F - 57.2 °F 47% 30.01 in - North 17.3 mph - N/A   Clear
9:00 AM 82.4 °F 82.0 °F 57.2 °F 42% 30.01 in - North 16.1 mph - N/A   Clear
9:44 AM 86.0 °F 84.9 °F 57.2 °F 37% 30.01 in - NNW 12.7 mph - N/A   Clear
10:00 AM 86.0 °F 84.5 °F 55.4 °F 35% 30.01 in - NNW 13.8 mph - N/A   Clear
11:00 AM 90 °F - 54 °F 20%  in 16 mi North 9.2 mph - -   Haze
11:00 AM 89.6 °F 87.3 °F 53.6 °F 29% 30.01 in 6.2 mi North 8.1 mph - N/A   Partly Cloudy
12:00 PM 91.4 °F - 48.2 °F 23% 29.98 in 6.2 mi North 6.9 mph - N/A   Partly Cloudy
1:00 PM 93.2 °F - 44.6 °F 19% 29.98 in 6.2 mi NNE 5.8 mph - N/A   Scattered Clouds
2:00 PM 96 °F - 42 °F 8%  in 16 mi SW 9.2 mph - -   Haze
2:00 PM 95.0 °F - 41.0 °F 15% 29.95 in 6.2 mi SW 8.1 mph - N/A   Scattered Clouds
3:00 PM 96.8 °F - 39.2 °F 14% 29.92 in 6.2 mi North 4.6 mph - N/A   Scattered Clouds
4:00 PM 98.6 °F - 37.4 °F 12% 29.89 in 6.2 mi WSW 8.1 mph - N/A   Partly Cloudy
5:00 PM 98 °F - 35 °F 5%  in 16 mi SSW 15.0 mph - -   Haze
5:00 PM 96.8 °F - 33.8 °F 11% 29.86 in 6.2 mi SSW 13.8 mph - N/A   Partly Cloudy
6:00 PM 96.8 °F - 32.0 °F 10% 29.86 in 6.2 mi SSW 12.7 mph - N/A   Partly Cloudy
7:00 PM 93.2 °F - 28.4 °F 10% 29.89 in 6.2 mi SSW 11.5 mph - N/A   Partly Cloudy
8:00 PM 89 °F - 29 °F 5%  in 25 mi SSW 6.9 mph - -   Scattered Clouds
8:00 PM 87.8 °F - 30.2 °F 13% 29.89 in 6.2 mi SSW 5.8 mph - N/A   Partly Cloudy
9:00 PM 84.2 °F - 30.2 °F 14% 29.92 in - SW 3.5 mph - N/A   Unknown
10:00 PM 82.4 °F - 28.4 °F 14% 29.92 in - West 1.2 mph - N/A   Unknown
11:00 PM 84 °F - 28 °F 6%  in - SW 11.5 mph - -  
11:00 PM 82.4 °F - 28.4 °F 14% 29.98 in - SW 10.4 mph - N/A   Unknown